Location: Unspecified
(0.0000°N, 0.0000°E)
Time: 19:21:35
(UTC+00:00)

Altair - All Passes

Search period start: 18 April 2019 00:00
Search period end: 28 April 2019 00:00
Orbit: 1502 x 1682 km, 47.2° (Epoch: 17 April)

Date Brightness Start Highest point End Pass type
(mag) Time Alt. Az. Time Alt. Az. Time Alt. Az.
18 Apr - 00:55:58 10° WSW 00:59:44 13° SW 01:03:34 10° SSW night (unlit)
18 Apr - 09:30:36 10° SSW 09:40:21 51° SE 09:49:51 10° ENE daylight
18 Apr - 11:36:07 10° WSW 11:45:00 36° NW 11:53:41 10° NNE daylight
18 Apr - 20:18:47 10° N 20:24:47 19° NE 20:30:49 10° E visible
18 Apr - 22:20:13 10° NW 22:29:25 82° SW 22:38:54 10° SE visible
19 Apr - 00:29:39 10° WSW 00:34:27 15° SW 00:39:21 10° SSW night (unlit)
19 Apr - 09:05:34 10° SSW 09:15:09 46° SE 09:24:29 10° ENE daylight
19 Apr - 11:10:36 10° WSW 11:19:48 40° NW 11:28:47 10° NNE daylight
19 Apr - 19:54:17 10° N 19:59:33 16° NE 20:04:50 10° E visible
19 Apr - 21:55:05 10° NW 22:04:16 90° NE 22:13:45 10° SE visible
20 Apr - 00:03:36 10° W 00:09:11 17° SW 00:14:54 10° S night (unlit)
20 Apr - 08:40:35 10° SSW 08:49:56 41° SE 08:59:04 10° ENE daylight
20 Apr - 10:45:09 10° WSW 10:54:36 45° NW 11:03:50 10° NNE daylight
20 Apr - 19:29:58 10° NNE 19:34:19 14° NE 19:38:40 10° ENE visible
20 Apr - 21:29:58 10° NW 21:39:08 81° NE 21:48:34 10° SE visible
20 Apr - 23:37:43 10° W 23:43:56 20° SW 23:50:19 10° S night (unlit)
21 Apr - 08:15:37 10° SSW 08:24:42 37° SE 08:33:37 10° ENE daylight
21 Apr - 10:19:43 10° WSW 10:29:25 51° NW 10:38:52 10° NNE daylight
21 Apr - 19:06:00 10° NNE 19:09:03 12° NE 19:12:06 10° ENE visible
21 Apr - 21:04:53 10° NNW 21:14:01 73° NE 21:23:20 10° SE visible
21 Apr - 23:11:57 10° W 23:18:42 22° SW 23:25:38 10° S night (unlit)
22 Apr - 07:50:43 10° SSW 07:59:29 33° SE 08:08:05 10° ENE daylight
22 Apr - 09:54:21 10° SW 10:04:13 57° NW 10:13:51 10° NNE daylight
22 Apr - 20:39:50 10° NNW 20:48:52 65° NE 20:58:05 10° SE visible
22 Apr - 22:46:17 10° W 22:53:28 25° SW 23:00:53 10° S visible
23 Apr - 07:25:50 10° S 07:34:14 29° SE 07:42:29 10° ENE daylight
23 Apr - 09:29:01 10° SW 09:39:02 64° NW 09:48:49 10° NNE daylight
23 Apr - 11:42:22 10° NW 11:44:20 11° NW 11:46:18 10° NNW daylight
23 Apr - 20:14:48 10° NNW 20:23:44 58° NE 20:32:48 10° SE visible
23 Apr - 22:20:42 10° WNW 22:28:16 29° SW 22:36:03 10° S visible
24 Apr - 07:01:01 10° S 07:08:59 26° SE 07:16:50 10° E daylight
24 Apr - 09:03:43 10° SW 09:13:50 71° NW 09:23:44 10° NNE daylight
24 Apr - 11:15:05 10° WNW 11:19:01 13° NW 11:22:55 10° NNW daylight
24 Apr - 19:49:48 10° NNW 19:58:36 51° NE 20:07:29 10° ESE visible
24 Apr - 21:55:11 10° WNW 22:03:05 32° SW 22:11:12 10° SSE visible
25 Apr - 06:36:16 10° S 06:43:43 23° SE 06:51:05 10° E daylight
25 Apr - 08:38:28 10° SW 08:48:38 78° NW 08:58:38 10° NE daylight
25 Apr - 10:48:35 10° WNW 10:53:43 15° NW 10:58:49 10° NNW daylight
25 Apr - 19:24:50 10° NNW 19:33:27 45° NE 19:42:08 10° ESE visible
25 Apr - 21:29:44 10° WNW 21:37:54 37° SW 21:46:18 10° SSE visible
26 Apr - 06:11:36 10° S 06:18:26 20° SE 06:25:14 10° E daylight
26 Apr - 08:13:14 10° SW 08:23:27 86° NW 08:33:30 10° NE daylight
26 Apr - 10:22:23 10° W 10:28:26 17° NW 10:34:25 10° N daylight
26 Apr - 18:59:55 10° NNW 19:08:19 40° NE 19:16:44 10° ESE visible
26 Apr - 21:04:19 10° WNW 21:12:45 41° SW 21:21:22 10° SSE visible
27 Apr - 05:47:01 10° S 05:53:09 17° SE 05:59:15 10° E daylight
27 Apr - 07:48:02 10° SW 07:58:15 85° SE 08:08:19 10° NE daylight
27 Apr - 09:56:23 10° W 10:03:09 20° NW 10:09:53 10° N daylight
27 Apr - 18:35:01 10° NNW 18:43:09 35° NE 18:51:17 10° ESE visible
27 Apr - 20:38:57 10° WNW 20:47:35 46° SW 20:56:24 10° SSE visible
